IBE3KE KJFK-LEMD

Flight info

Callsign IBE3KE
Flight time 6h 41m
Altitude 39000
Route HAPIE DCT YAHOO DCT DOVEY/M081F390 DCT 42N060W 44N050W 44N040W 43N030W 4230N02000W DCT BANAL/N0470F390 DCT BARDI/N0475F400 M191 RIDAV
Aircraft A333/H-SDE3GHIJ2J3J5M1RVWXY/LB2D1

Departure

Time 2026-05-08 15:54
Airport John F. Kennedy International Airport (KJFK)

Arrival

Time 2026-05-08 22:35
Airport Adolfo Suárez Madrid–Barajas Airport (LEMD)
Time Latitude Longitude Altitude Speed Heading
2026-05-08 15:15 40.64822 -73.79280 21 ft 0 kts 150°
2026-05-08 15:18 40.64823 -73.79280 21 ft 0 kts 150°
2026-05-08 15:31 40.64825 -73.79281 21 ft 2 kts 150°
2026-05-08 15:31 40.64836 -73.79290 25 ft 2 kts 150°
2026-05-08 15:31 40.64847 -73.79298 25 ft 2 kts 150°
2026-05-08 15:32 40.64859 -73.79307 25 ft 2 kts 132°
2026-05-08 15:32 40.64866 -73.79321 25 ft 2 kts 125°
2026-05-08 15:32 40.64876 -73.79326 24 ft 0 kts 248°
2026-05-08 15:32 40.64877 -73.79322 24 ft 0 kts 236°
2026-05-08 15:37 40.64876 -73.79324 24 ft 0 kts 236°
2026-05-08 15:39 40.64874 -73.79328 21 ft 1 kts 237°
2026-05-08 15:40 40.64867 -73.79343 22 ft 4 kts 239°
2026-05-08 15:40 40.64836 -73.79409 23 ft 8 kts 239°
2026-05-08 15:40 40.64814 -73.79458 23 ft 10 kts 240°
2026-05-08 15:40 40.64775 -73.79551 23 ft 13 kts 242°
2026-05-08 15:41 40.64726 -73.79665 24 ft 15 kts 240°
2026-05-08 15:41 40.64670 -73.79704 27 ft 6 kts 166°
2026-05-08 15:41 40.64632 -73.79679 27 ft 7 kts 146°
2026-05-08 15:41 40.64580 -73.79632 29 ft 11 kts 145°
2026-05-08 15:42 40.64505 -73.79601 26 ft 12 kts 175°
2026-05-08 15:42 40.64410 -73.79592 28 ft 16 kts 177°
2026-05-08 15:42 40.64292 -73.79600 27 ft 13 kts 183°
2026-05-08 15:42 40.64286 -73.79600 27 ft 0 kts 183°
2026-05-08 15:43 40.64270 -73.79601 27 ft 5 kts 183°
2026-05-08 15:43 40.64219 -73.79605 27 ft 10 kts 183°
2026-05-08 15:43 40.64139 -73.79610 29 ft 13 kts 179°
2026-05-08 15:44 40.64045 -73.79576 28 ft 15 kts 150°
2026-05-08 15:44 40.63968 -73.79473 30 ft 17 kts 122°
2026-05-08 15:44 40.63899 -73.79323 27 ft 21 kts 120°
2026-05-08 15:44 40.63818 -73.79141 27 ft 25 kts 120°
2026-05-08 15:45 40.63727 -73.78942 26 ft 18 kts 123°
2026-05-08 15:45 40.63657 -73.78791 28 ft 21 kts 121°
2026-05-08 15:45 40.63580 -73.78620 31 ft 16 kts 118°
2026-05-08 15:45 40.63518 -73.78482 30 ft 20 kts 121°
2026-05-08 15:46 40.63441 -73.78310 29 ft 24 kts 120°
2026-05-08 15:46 40.63365 -73.78140 27 ft 15 kts 121°
2026-05-08 15:46 40.63329 -73.78008 25 ft 16 kts 92°
2026-05-08 15:46 40.63357 -73.77859 28 ft 18 kts 58°
2026-05-08 15:47 40.63455 -73.77749 29 ft 17 kts 28°
2026-05-08 15:47 40.63565 -73.77662 26 ft 20 kts 30°
2026-05-08 15:47 40.63694 -73.77560 29 ft 23 kts 31°
2026-05-08 15:47 40.63841 -73.77445 27 ft 26 kts 30°
2026-05-08 15:48 40.64072 -73.77266 25 ft 20 kts 31°
2026-05-08 15:48 40.64199 -73.77168 30 ft 23 kts 30°
2026-05-08 15:48 40.64341 -73.77054 30 ft 25 kts 30°
2026-05-08 15:49 40.64508 -73.76980 26 ft 25 kts 15°
2026-05-08 15:49 40.64660 -73.76875 29 ft 18 kts 26°
2026-05-08 15:49 40.64669 -73.76868 28 ft 0 kts 28°
2026-05-08 15:49 40.64677 -73.76863 25 ft 4 kts 28°
2026-05-08 15:50 40.64710 -73.76833 29 ft 10 kts 32°
2026-05-08 15:50 40.64785 -73.76773 29 ft 14 kts 31°
2026-05-08 15:50 40.64877 -73.76699 31 ft 17 kts 31°
2026-05-08 15:50 40.64990 -73.76610 29 ft 20 kts 30°
2026-05-08 15:51 40.65093 -73.76519 26 ft 6 kts 63°
2026-05-08 15:51 40.65092 -73.76460 31 ft 4 kts 111°
2026-05-08 15:51 40.65088 -73.76451 30 ft 2 kts 119°
2026-05-08 15:52 40.65076 -73.76422 29 ft 5 kts 119°
2026-05-08 15:52 40.65050 -73.76366 28 ft 7 kts 128°
2026-05-08 15:52 40.65030 -73.76363 31 ft 3 kts 193°
2026-05-08 15:52 40.64964 -73.76404 30 ft 19 kts 210°
2026-05-08 15:53 40.64800 -73.76532 30 ft 39 kts 211°
2026-05-08 15:53 40.64386 -73.76856 27 ft 99 kts 211°
2026-05-08 15:53 40.63650 -73.77428 28 ft 149 kts 212°
2026-05-08 15:53 40.62654 -73.78245 132 ft 184 kts 216°
2026-05-08 15:54 40.61506 -73.79134 532 ft 196 kts 212°
2026-05-08 15:54 40.60274 -73.79823 1023 ft 189 kts 194°
2026-05-08 15:54 40.58960 -73.79791 1472 ft 193 kts 173°
2026-05-08 15:54 40.57678 -73.79143 1671 ft 210 kts 146°
2026-05-08 15:55 40.56648 -73.77633 1790 ft 234 kts 123°
2026-05-08 15:55 40.55382 -73.73336 2328 ft 267 kts 104°
2026-05-08 15:55 40.54948 -73.70940 2857 ft 272 kts 102°
2026-05-08 15:56 40.54523 -73.68503 3457 ft 275 kts 103°
2026-05-08 15:56 40.54070 -73.66046 4038 ft 279 kts 104°
2026-05-08 15:56 40.53573 -73.63562 4616 ft 284 kts 104°
2026-05-08 15:56 40.53036 -73.61041 4982 ft 288 kts 105°
2026-05-08 15:57 40.52472 -73.58496 5462 ft 293 kts 106°
2026-05-08 15:57 40.51889 -73.55922 6107 ft 295 kts 107°
2026-05-08 15:57 40.51294 -73.53321 6720 ft 299 kts 107°
2026-05-08 15:57 40.50691 -73.50687 7299 ft 303 kts 107°
2026-05-08 15:58 40.50079 -73.48016 7894 ft 307 kts 107°
2026-05-08 15:58 40.49461 -73.45311 8496 ft 312 kts 107°
2026-05-08 15:58 40.48836 -73.42567 9083 ft 316 kts 107°
2026-05-08 15:58 40.48200 -73.39779 9676 ft 321 kts 107°
2026-05-08 15:59 40.47556 -73.36955 10176 ft 328 kts 107°
2026-05-08 15:59 40.46884 -73.34017 10413 ft 344 kts 107°
2026-05-08 15:59 40.46180 -73.30937 10603 ft 360 kts 107°
2026-05-08 15:59 40.45441 -73.27713 10817 ft 376 kts 107°
2026-05-08 16:00 40.44672 -73.24360 11017 ft 391 kts 107°
2026-05-08 16:00 40.43874 -73.20886 11224 ft 404 kts 107°
2026-05-08 16:00 40.43053 -73.17316 11602 ft 411 kts 107°
2026-05-08 16:00 40.42221 -73.13704 12058 ft 416 kts 107°
2026-05-08 16:01 40.41378 -73.10052 12552 ft 420 kts 107°
2026-05-08 16:01 40.40527 -73.06366 13023 ft 424 kts 107°
2026-05-08 16:01 40.39747 -73.02622 13502 ft 428 kts 101°
2026-05-08 16:01 40.39383 -72.98740 13947 ft 431 kts 90°
2026-05-08 16:02 40.39602 -72.94820 14347 ft 432 kts 78°
2026-05-08 16:02 40.40206 -72.90994 14694 ft 436 kts 73°
2026-05-08 16:02 40.40998 -72.87146 15091 ft 439 kts 70°
2026-05-08 16:02 40.41883 -72.83301 15510 ft 441 kts 69°
2026-05-08 16:03 40.42804 -72.79442 15908 ft 445 kts 69°
2026-05-08 16:03 40.43731 -72.75554 16319 ft 448 kts 69°
2026-05-08 16:03 40.44651 -72.71626 16707 ft 452 kts 70°
2026-05-08 16:03 40.45565 -72.67656 17090 ft 456 kts 70°
2026-05-08 16:04 40.46472 -72.63649 17465 ft 461 kts 70°
2026-05-08 16:04 40.47381 -72.59596 17818 ft 464 kts 70°
2026-05-08 16:04 40.48293 -72.55506 18169 ft 469 kts 70°
2026-05-08 16:04 40.49209 -72.51381 18507 ft 472 kts 70°
2026-05-08 16:05 40.50129 -72.47232 18855 ft 474 kts 70°
2026-05-08 16:05 40.51053 -72.43057 19205 ft 477 kts 70°
2026-05-08 16:05 40.51979 -72.38865 19566 ft 479 kts 70°
2026-05-08 16:05 40.52908 -72.34659 19893 ft 481 kts 70°
2026-05-08 16:06 40.53841 -72.30427 20224 ft 483 kts 70°
2026-05-08 16:06 40.54778 -72.26172 20564 ft 486 kts 70°
2026-05-08 16:06 40.55718 -72.21895 20875 ft 488 kts 70°
2026-05-08 16:06 40.56662 -72.17591 21180 ft 491 kts 70°
2026-05-08 16:07 40.57608 -72.13266 21496 ft 493 kts 70°
2026-05-08 16:07 40.58558 -72.08917 21799 ft 496 kts 69°
2026-05-08 16:07 40.59514 -72.04535 22075 ft 500 kts 69°
2026-05-08 16:07 40.60471 -72.00133 22399 ft 502 kts 69°
2026-05-08 16:08 40.61431 -71.95713 22713 ft 504 kts 69°
2026-05-08 16:08 40.62394 -71.91262 23019 ft 506 kts 69°
2026-05-08 16:08 40.63360 -71.86800 23292 ft 508 kts 70°
2026-05-08 16:08 40.64328 -71.82312 23582 ft 511 kts 70°
2026-05-08 16:09 40.65299 -71.77800 23802 ft 514 kts 70°
2026-05-08 16:09 40.65944 -71.74800 23943 ft 515 kts 70°
2026-05-08 16:09 40.67252 -71.68696 24225 ft 519 kts 70°
2026-05-08 16:09 40.68234 -71.64105 24447 ft 522 kts 70°
2026-05-08 16:10 40.69206 -71.59553 24640 ft 525 kts 70°
2026-05-08 16:10 40.70206 -71.54855 24888 ft 527 kts 70°
2026-05-08 16:10 40.71188 -71.50239 25009 ft 532 kts 70°
2026-05-08 16:10 40.72186 -71.45533 25233 ft 534 kts 71°
2026-05-08 16:11 40.73186 -71.40803 25453 ft 536 kts 71°
2026-05-08 16:11 40.74187 -71.36060 25660 ft 539 kts 71°
2026-05-08 16:11 40.75193 -71.31283 25864 ft 541 kts 71°
2026-05-08 16:11 40.76199 -71.26494 26053 ft 544 kts 71°
2026-05-08 16:12 40.77210 -71.21675 26263 ft 546 kts 71°
2026-05-08 16:12 40.78221 -71.16840 26459 ft 548 kts 71°
2026-05-08 16:12 40.79235 -71.11982 26651 ft 550 kts 71°
2026-05-08 16:12 40.80251 -71.07102 26841 ft 553 kts 71°
2026-05-08 16:13 40.81270 -71.02196 27026 ft 555 kts 71°
2026-05-08 16:13 40.82289 -70.97278 27349 ft 556 kts 71°
2026-05-08 16:13 40.83306 -70.92353 27591 ft 557 kts 71°
2026-05-08 16:13 40.84327 -70.87406 27729 ft 559 kts 71°
2026-05-08 16:14 40.85351 -70.82436 27827 ft 563 kts 72°
2026-05-08 16:14 40.86380 -70.77428 27991 ft 566 kts 72°
2026-05-08 16:14 40.87408 -70.72406 28180 ft 567 kts 72°
2026-05-08 16:14 40.88438 -70.67364 28355 ft 569 kts 72°
2026-05-08 16:15 40.89469 -70.62304 28532 ft 571 kts 72°
2026-05-08 16:15 40.90502 -70.57223 28709 ft 573 kts 72°
2026-05-08 16:15 40.91534 -70.52129 28909 ft 574 kts 72°
2026-05-08 16:15 40.92568 -70.47021 29018 ft 577 kts 72°
2026-05-08 16:16 40.93601 -70.41901 29439 ft 574 kts 72°
2026-05-08 16:16 40.94624 -70.36810 29830 ft 572 kts 72°
2026-05-08 16:16 40.95645 -70.31722 30027 ft 573 kts 72°
2026-05-08 16:16 40.96667 -70.26618 30212 ft 574 kts 72°
2026-05-08 16:17 40.97685 -70.21522 30463 ft 572 kts 72°
2026-05-08 16:17 40.98355 -70.18157 30601 ft 572 kts 73°
2026-05-08 16:17 40.99713 -70.11329 30782 ft 574 kts 73°
2026-05-08 16:17 41.00726 -70.06222 31019 ft 573 kts 73°
2026-05-08 16:18 41.01721 -70.01189 31288 ft 572 kts 73°
2026-05-08 16:18 41.02724 -69.96104 31553 ft 570 kts 73°
2026-05-08 16:18 41.03721 -69.91037 31809 ft 569 kts 73°
2026-05-08 16:18 41.04716 -69.85968 32019 ft 568 kts 74°
2026-05-08 16:19 41.05709 -69.80897 32127 ft 570 kts 74°
2026-05-08 16:19 41.06590 -69.75776 32264 ft 571 kts 82°
2026-05-08 16:19 41.06975 -69.70545 32487 ft 570 kts 86°
2026-05-08 16:19 41.07228 -69.65315 32749 ft 568 kts 88°
2026-05-08 16:20 41.07410 -69.60095 32982 ft 567 kts 89°
2026-05-08 16:20 41.07552 -69.54882 33201 ft 566 kts 89°
2026-05-08 16:20 41.07677 -69.49672 33339 ft 565 kts 90°
2026-05-08 16:20 41.07797 -69.44462 33475 ft 566 kts 90°
2026-05-08 16:21 41.07920 -69.39252 33663 ft 565 kts 90°
2026-05-08 16:21 41.08045 -69.34048 33882 ft 564 kts 89°
2026-05-08 16:21 41.08173 -69.28858 34060 ft 563 kts 89°
2026-05-08 16:21 41.08301 -69.23670 34204 ft 563 kts 89°
2026-05-08 16:22 41.08428 -69.18492 34316 ft 562 kts 90°
2026-05-08 16:22 41.08512 -69.15058 34390 ft 563 kts 90°
2026-05-08 16:22 41.08677 -69.08124 34642 ft 562 kts 90°
2026-05-08 16:22 41.08798 -69.02960 34832 ft 560 kts 90°
2026-05-08 16:23 41.08915 -68.97804 34947 ft 560 kts 90°
2026-05-08 16:23 41.09030 -68.92646 35057 ft 560 kts 90°
2026-05-08 16:23 41.09143 -68.87489 35169 ft 560 kts 90°
2026-05-08 16:23 41.09253 -68.82324 35238 ft 561 kts 90°
2026-05-08 16:24 41.09467 -68.71977 35424 ft 561 kts 90°
2026-05-08 16:24 41.09570 -68.66808 35558 ft 561 kts 90°
2026-05-08 16:24 41.09672 -68.61641 35671 ft 560 kts 90°
2026-05-08 16:25 41.09771 -68.56484 35797 ft 560 kts 90°
2026-05-08 16:25 41.09867 -68.51323 35861 ft 560 kts 90°
2026-05-08 16:25 41.09961 -68.46171 35999 ft 559 kts 90°
2026-05-08 16:25 41.10053 -68.41023 36117 ft 558 kts 90°
2026-05-08 16:26 41.10229 -68.30738 36296 ft 558 kts 91°
2026-05-08 16:26 41.10314 -68.25597 36401 ft 558 kts 91°
2026-05-08 16:26 41.10396 -68.20454 36498 ft 558 kts 91°
2026-05-08 16:27 41.10475 -68.15384 36680 ft 556 kts 91°
2026-05-08 16:27 41.10553 -68.10273 36853 ft 554 kts 91°
2026-05-08 16:27 41.10701 -68.00074 37101 ft 551 kts 91°
2026-05-08 16:28 41.10772 -67.95030 37542 ft 542 kts 91°
2026-05-08 16:28 41.10840 -67.90076 38012 ft 533 kts 91°
2026-05-08 16:28 41.10905 -67.85211 38483 ft 523 kts 91°
2026-05-08 16:28 41.10946 -67.81979 38744 ft 517 kts 91°
2026-05-08 16:29 41.11004 -67.77300 38907 ft 513 kts 91°
2026-05-08 16:29 41.11059 -67.72573 38929 ft 513 kts 91°
2026-05-08 16:29 41.11161 -67.63114 38928 ft 513 kts 92°
2026-05-08 16:30 41.11257 -67.53654 38890 ft 514 kts 92°
2026-05-08 16:30 41.11349 -67.44193 38927 ft 513 kts 92°
2026-05-08 16:31 41.11432 -67.34725 38926 ft 514 kts 92°
2026-05-08 16:31 41.11507 -67.25248 38922 ft 514 kts 92°
2026-05-08 16:32 41.11575 -67.15756 38922 ft 515 kts 93°
2026-05-08 16:32 41.11636 -67.06246 38920 ft 516 kts 93°
2026-05-08 16:33 41.12253 -66.96747 38918 ft 520 kts 82°
2026-05-08 16:33 41.13618 -66.87307 38892 ft 521 kts 80°
2026-05-08 16:34 41.15114 -66.77897 38918 ft 522 kts 79°
2026-05-08 16:34 41.16615 -66.68469 38913 ft 523 kts 80°
2026-05-08 16:35 41.18094 -66.59011 38916 ft 523 kts 80°
2026-05-08 16:35 41.19557 -66.49536 38911 ft 524 kts 80°
2026-05-08 16:36 41.21013 -66.40032 38905 ft 526 kts 81°
2026-05-08 16:36 41.22464 -66.30511 38903 ft 527 kts 81°
2026-05-08 16:37 41.23900 -66.21032 38894 ft 527 kts 81°
2026-05-08 16:37 41.25341 -66.11476 38903 ft 528 kts 81°
2026-05-08 16:38 41.26775 -66.01898 38905 ft 530 kts 81°
2026-05-08 16:38 41.28208 -65.92276 38867 ft 531 kts 81°
2026-05-08 16:39 41.29634 -65.82638 38888 ft 532 kts 81°
2026-05-08 16:39 41.31054 -65.72983 38888 ft 533 kts 81°
2026-05-08 16:40 41.32470 -65.63299 38886 ft 534 kts 81°
2026-05-08 16:40 41.33881 -65.53593 38884 ft 534 kts 82°
2026-05-08 16:41 41.35285 -65.43863 38889 ft 537 kts 82°
2026-05-08 16:42 41.37386 -65.29197 38832 ft 539 kts 82°
2026-05-08 16:42 41.38779 -65.19399 38874 ft 539 kts 82°
2026-05-08 16:43 41.40165 -65.09582 38871 ft 540 kts 82°
2026-05-08 16:43 41.41547 -64.99733 38871 ft 542 kts 82°
2026-05-08 16:44 41.42926 -64.89842 38862 ft 543 kts 83°
2026-05-08 16:44 41.44299 -64.79929 38869 ft 545 kts 83°
2026-05-08 16:45 41.45667 -64.69981 38861 ft 546 kts 83°
2026-05-08 16:45 41.47030 -64.60006 38859 ft 548 kts 83°
2026-05-08 16:46 41.48387 -64.50004 38859 ft 548 kts 83°
2026-05-08 16:46 41.49736 -64.40007 38860 ft 547 kts 83°
2026-05-08 16:47 41.51073 -64.30022 38846 ft 546 kts 83°
2026-05-08 16:47 41.52398 -64.20052 38849 ft 546 kts 83°
2026-05-08 16:48 41.53714 -64.10082 38841 ft 545 kts 83°
2026-05-08 16:48 41.55020 -64.00119 38843 ft 545 kts 83°
2026-05-08 16:49 41.56318 -63.90150 38841 ft 544 kts 84°
2026-05-08 16:49 41.57605 -63.80203 38838 ft 543 kts 84°
2026-05-08 16:50 41.58881 -63.70262 38827 ft 542 kts 84°
2026-05-08 16:50 41.60147 -63.60327 38826 ft 543 kts 84°
2026-05-08 16:51 41.61405 -63.50384 38830 ft 543 kts 84°
2026-05-08 16:51 41.62645 -63.40510 38804 ft 542 kts 84°
2026-05-08 16:52 41.63885 -63.30571 38818 ft 543 kts 84°
2026-05-08 16:52 41.65118 -63.20611 38815 ft 543 kts 84°
2026-05-08 16:53 41.66951 -63.05677 38806 ft 542 kts 85°
2026-05-08 16:53 41.68161 -62.95716 38807 ft 543 kts 85°
2026-05-08 16:54 41.69364 -62.85748 38800 ft 542 kts 85°
2026-05-08 16:54 41.70556 -62.75796 38774 ft 541 kts 85°
2026-05-08 16:55 41.71738 -62.65843 38793 ft 542 kts 85°
2026-05-08 16:55 41.72913 -62.55872 38793 ft 542 kts 85°
2026-05-08 16:56 41.74081 -62.45893 38788 ft 542 kts 85°
2026-05-08 16:56 41.75239 -62.35919 38786 ft 541 kts 85°
2026-05-08 16:57 41.76386 -62.25977 38783 ft 539 kts 86°
2026-05-08 16:57 41.77520 -62.16056 38774 ft 538 kts 86°
2026-05-08 16:58 41.78643 -62.06145 38765 ft 538 kts 86°
2026-05-08 16:58 41.79758 -61.96228 38775 ft 538 kts 86°
2026-05-08 16:59 41.80865 -61.86311 38759 ft 537 kts 87°
2026-05-08 16:59 41.81960 -61.76425 38768 ft 535 kts 87°
2026-05-08 17:00 41.83035 -61.66642 38768 ft 534 kts 87°
2026-05-08 17:00 41.84107 -61.56787 38761 ft 534 kts 87°
2026-05-08 17:01 41.85171 -61.46933 38754 ft 534 kts 87°
2026-05-08 17:01 41.86228 -61.37077 38758 ft 533 kts 88°
2026-05-08 17:02 41.87274 -61.27242 38763 ft 531 kts 88°
2026-05-08 17:02 41.88307 -61.17443 38767 ft 530 kts 88°
2026-05-08 17:03 41.89211 -61.08777 38747 ft 530 kts 88°
2026-05-08 17:03 41.90227 -60.98975 38746 ft 530 kts 88°
2026-05-08 17:04 41.91235 -60.89167 38744 ft 530 kts 88°
2026-05-08 17:04 41.92234 -60.79373 38739 ft 529 kts 89°
2026-05-08 17:05 41.93223 -60.69593 38737 ft 528 kts 89°
2026-05-08 17:05 41.94201 -60.59827 38736 ft 528 kts 89°
2026-05-08 17:06 41.95171 -60.50064 38730 ft 527 kts 89°
2026-05-08 17:06 41.96131 -60.40309 38730 ft 526 kts 89°
2026-05-08 17:07 41.97081 -60.30568 38725 ft 525 kts 89°
2026-05-08 17:07 41.98021 -60.20849 38720 ft 524 kts 89°
2026-05-08 17:08 41.98951 -60.11142 38681 ft 523 kts 90°
2026-05-08 17:08 41.99951 -60.01459 38712 ft 527 kts 84°
2026-05-08 17:09 42.01996 -59.91941 38713 ft 532 kts 78°
2026-05-08 17:09 42.04330 -59.82490 38708 ft 533 kts 77°
2026-05-08 17:10 42.06715 -59.73046 38708 ft 533 kts 77°
2026-05-08 17:10 42.09069 -59.63639 38709 ft 532 kts 77°
2026-05-08 17:11 42.11404 -59.54198 38693 ft 531 kts 78°
2026-05-08 17:11 42.13725 -59.44753 38701 ft 531 kts 78°
2026-05-08 17:12 42.16033 -59.35317 38702 ft 530 kts 78°
2026-05-08 17:12 42.18333 -59.25878 38700 ft 530 kts 78°
2026-05-08 17:13 42.20627 -59.16425 38702 ft 530 kts 78°
2026-05-08 17:13 42.22914 -59.06966 38692 ft 530 kts 78°
2026-05-08 17:14 42.25178 -58.97566 38684 ft 530 kts 78°
2026-05-08 17:14 42.27447 -58.88098 38686 ft 531 kts 78°
2026-05-08 17:15 42.29700 -58.78665 38677 ft 531 kts 79°
2026-05-08 17:15 42.31958 -58.69173 38670 ft 530 kts 79°
2026-05-08 17:16 42.33826 -58.61286 38670 ft 530 kts 79°
2026-05-08 17:16 42.36066 -58.51793 38670 ft 530 kts 79°
2026-05-08 17:17 42.38298 -58.42298 38660 ft 529 kts 79°
2026-05-08 17:17 42.40520 -58.32799 38658 ft 530 kts 79°
2026-05-08 17:18 42.42737 -58.23285 38647 ft 530 kts 79°
2026-05-08 17:18 42.44944 -58.13778 38648 ft 529 kts 79°
2026-05-08 17:19 42.47140 -58.04271 38642 ft 529 kts 79°
2026-05-08 17:19 42.49329 -57.94753 38633 ft 529 kts 79°
2026-05-08 17:20 42.51486 -57.85340 38618 ft 528 kts 79°
2026-05-08 17:20 42.53666 -57.75780 38621 ft 526 kts 79°
2026-05-08 17:21 42.55804 -57.66365 38625 ft 526 kts 79°
2026-05-08 17:21 42.57958 -57.56846 38621 ft 522 kts 79°
2026-05-08 17:22 42.60059 -57.47519 38613 ft 519 kts 79°
2026-05-08 17:22 42.62155 -57.38162 38615 ft 519 kts 79°
2026-05-08 17:23 42.64253 -57.28755 38571 ft 519 kts 79°
2026-05-08 17:23 42.66334 -57.19393 38615 ft 517 kts 79°
2026-05-08 17:24 42.68401 -57.10051 38612 ft 517 kts 79°
2026-05-08 17:24 42.70464 -57.00688 38609 ft 517 kts 79°
2026-05-08 17:25 42.72518 -56.91322 38612 ft 517 kts 79°
2026-05-08 17:25 42.74561 -56.81967 38611 ft 517 kts 79°
2026-05-08 17:26 42.76609 -56.72545 38611 ft 519 kts 79°
2026-05-08 17:26 42.78647 -56.63131 38608 ft 518 kts 79°
2026-05-08 17:27 42.80673 -56.53735 38615 ft 516 kts 79°
2026-05-08 17:27 42.82684 -56.44364 38607 ft 514 kts 79°
2026-05-08 17:28 42.84654 -56.35151 38642 ft 510 kts 79°
2026-05-08 17:28 42.86628 -56.25859 38614 ft 508 kts 79°
2026-05-08 17:29 42.88584 -56.16616 38621 ft 508 kts 79°
2026-05-08 17:29 42.90540 -56.07336 38625 ft 508 kts 79°
2026-05-08 17:30 42.92472 -55.98110 38634 ft 505 kts 79°
2026-05-08 17:30 42.94396 -55.88907 38636 ft 504 kts 79°
2026-05-08 17:31 42.96311 -55.79711 38633 ft 504 kts 79°
2026-05-08 17:31 42.98218 -55.70502 38639 ft 504 kts 80°
2026-05-08 17:32 43.00112 -55.61318 38650 ft 503 kts 80°
2026-05-08 17:32 43.02001 -55.52111 38650 ft 503 kts 80°
2026-05-08 17:33 43.03880 -55.42914 38655 ft 502 kts 80°
2026-05-08 17:33 43.05748 -55.33725 38669 ft 503 kts 80°
2026-05-08 17:34 43.07604 -55.24557 38668 ft 502 kts 80°
2026-05-08 17:34 43.09472 -55.15285 38684 ft 502 kts 80°
2026-05-08 17:35 43.11311 -55.06116 38683 ft 502 kts 80°
2026-05-08 17:35 43.13153 -54.96890 38688 ft 502 kts 80°
2026-05-08 17:36 43.14990 -54.87651 38687 ft 502 kts 80°
2026-05-08 17:36 43.16815 -54.78423 38703 ft 502 kts 80°
2026-05-08 17:37 43.18631 -54.69201 38704 ft 502 kts 80°
2026-05-08 17:37 43.20434 -54.60002 38717 ft 502 kts 81°
2026-05-08 17:38 43.22239 -54.50747 38713 ft 502 kts 81°
2026-05-08 17:38 43.24022 -54.41567 38724 ft 501 kts 81°
2026-05-08 17:39 43.25804 -54.32344 38735 ft 500 kts 81°
2026-05-08 17:39 43.27578 -54.23117 38738 ft 500 kts 81°
2026-05-08 17:40 43.29343 -54.13893 38746 ft 500 kts 81°
2026-05-08 17:40 43.31096 -54.04690 38746 ft 499 kts 81°
2026-05-08 17:41 43.32843 -53.95474 38749 ft 499 kts 81°
2026-05-08 17:41 43.34582 -53.86257 38761 ft 499 kts 81°
2026-05-08 17:42 43.36315 -53.77023 38760 ft 499 kts 82°
2026-05-08 17:42 43.38039 -53.67796 38738 ft 499 kts 82°
2026-05-08 17:43 43.39756 -53.58556 38774 ft 500 kts 82°
2026-05-08 17:43 43.41471 -53.49285 38773 ft 500 kts 82°
2026-05-08 17:44 43.43178 -53.40017 38779 ft 500 kts 82°
2026-05-08 17:44 43.44875 -53.30753 38774 ft 500 kts 82°
2026-05-08 17:45 43.46566 -53.21478 38787 ft 500 kts 82°
2026-05-08 17:45 43.48250 -53.12191 38793 ft 500 kts 82°
2026-05-08 17:46 43.49929 -53.02887 38787 ft 500 kts 82°
2026-05-08 17:46 43.51599 -52.93587 38799 ft 500 kts 82°
2026-05-08 17:47 43.53258 -52.84300 38803 ft 498 kts 81°
2026-05-08 17:47 43.54624 -52.76623 38805 ft 496 kts 81°
2026-05-08 17:48 43.56529 -52.65855 38812 ft 495 kts 81°
2026-05-08 17:48 43.58147 -52.56656 38815 ft 495 kts 82°
2026-05-08 17:49 43.59774 -52.47358 38812 ft 495 kts 81°
2026-05-08 17:49 43.61365 -52.38222 38824 ft 495 kts 81°
2026-05-08 17:50 43.62965 -52.28984 38830 ft 496 kts 81°
2026-05-08 17:50 43.64576 -52.19633 38833 ft 497 kts 81°
2026-05-08 17:51 43.66156 -52.10419 38840 ft 496 kts 81°
2026-05-08 17:51 43.67741 -52.01128 38844 ft 497 kts 81°
2026-05-08 17:52 43.69322 -51.91803 38861 ft 500 kts 82°
2026-05-08 17:53 43.71685 -51.77782 38853 ft 501 kts 81°
2026-05-08 17:53 43.73264 -51.68352 38870 ft 502 kts 81°
2026-05-08 17:54 43.74831 -51.58937 38873 ft 503 kts 81°
2026-05-08 17:54 43.76394 -51.49493 38872 ft 504 kts 81°
2026-05-08 17:55 43.77949 -51.40054 38881 ft 504 kts 81°
2026-05-08 17:55 43.79503 -51.30565 38881 ft 504 kts 81°
2026-05-08 17:56 43.81045 -51.21098 38885 ft 504 kts 81°
2026-05-08 17:56 43.82580 -51.11611 38900 ft 505 kts 81°
2026-05-08 17:57 43.84110 -51.02107 38896 ft 506 kts 81°
2026-05-08 17:57 43.85628 -50.92634 38917 ft 506 kts 81°
2026-05-08 17:58 43.87146 -50.83101 38913 ft 505 kts 81°
2026-05-08 17:58 43.88652 -50.73585 38915 ft 505 kts 81°
2026-05-08 17:59 43.90149 -50.64070 38920 ft 505 kts 81°
2026-05-08 17:59 43.91641 -50.54538 38918 ft 506 kts 81°
2026-05-08 18:00 43.92872 -50.46621 38922 ft 505 kts 81°
2026-05-08 18:00 43.95330 -50.30719 38940 ft 504 kts 80°
2026-05-08 18:01 43.96786 -50.21223 38944 ft 504 kts 81°
2026-05-08 18:01 43.98228 -50.11760 38948 ft 504 kts 81°
2026-05-08 18:02 43.99437 -50.03777 38954 ft 504 kts 81°
2026-05-08 18:02 44.00340 -49.92528 38956 ft 500 kts 89°
2026-05-08 18:03 44.00774 -49.82983 38969 ft 498 kts 89°
2026-05-08 18:03 44.01157 -49.73338 38969 ft 497 kts 89°
2026-05-08 18:04 44.01532 -49.63832 38971 ft 497 kts 89°
2026-05-08 18:04 44.01909 -49.54312 38971 ft 497 kts 89°
2026-05-08 18:05 44.02287 -49.44701 38986 ft 496 kts 90°
2026-05-08 18:05 44.02656 -49.35135 38986 ft 496 kts 90°
2026-05-08 18:06 44.02956 -49.27192 38999 ft 495 kts 90°
2026-05-08 18:06 44.03309 -49.17622 38999 ft 495 kts 90°
2026-05-08 18:07 44.03653 -49.08066 39005 ft 495 kts 90°
2026-05-08 18:07 44.03990 -48.98507 39010 ft 496 kts 90°
2026-05-08 18:08 44.04319 -48.88947 39010 ft 494 kts 90°
2026-05-08 18:08 44.04639 -48.79427 39023 ft 491 kts 90°
2026-05-08 18:09 44.04950 -48.69954 39017 ft 490 kts 90°
2026-05-08 18:09 44.05250 -48.60510 39031 ft 490 kts 90°
2026-05-08 18:10 44.05544 -48.51046 39027 ft 490 kts 91°
2026-05-08 18:10 44.05829 -48.41596 39037 ft 490 kts 91°
2026-05-08 18:11 44.06108 -48.32124 39033 ft 489 kts 90°
2026-05-08 18:11 44.06378 -48.22670 39061 ft 490 kts 90°
2026-05-08 18:12 44.06640 -48.13239 39051 ft 490 kts 90°
2026-05-08 18:12 44.06895 -48.03772 39063 ft 490 kts 90°
2026-05-08 18:13 44.07142 -47.94309 39062 ft 490 kts 90°
2026-05-08 18:13 44.07380 -47.84850 39062 ft 489 kts 90°
2026-05-08 18:14 44.07611 -47.75397 39069 ft 490 kts 89°
2026-05-08 18:14 44.07835 -47.65911 39070 ft 490 kts 89°
2026-05-08 18:15 44.08052 -47.56433 39081 ft 491 kts 89°
2026-05-08 18:15 44.08260 -47.46953 39080 ft 490 kts 89°
2026-05-08 18:16 44.08460 -47.37480 39093 ft 490 kts 89°
2026-05-08 18:16 44.08652 -47.28045 39086 ft 491 kts 88°
2026-05-08 18:17 44.08837 -47.18539 39103 ft 492 kts 88°
2026-05-08 18:17 44.09014 -47.09031 39104 ft 492 kts 89°
2026-05-08 18:18 44.09184 -46.99527 39109 ft 492 kts 89°
2026-05-08 18:18 44.09346 -46.90012 39113 ft 492 kts 89°
2026-05-08 18:19 44.09499 -46.80510 39115 ft 492 kts 88°
2026-05-08 18:19 44.09645 -46.70983 39121 ft 492 kts 88°
2026-05-08 18:20 44.09783 -46.61474 39122 ft 491 kts 88°
2026-05-08 18:20 44.09913 -46.51991 39134 ft 491 kts 88°
2026-05-08 18:21 44.10035 -46.42490 39134 ft 491 kts 88°
2026-05-08 18:21 44.10149 -46.33008 39146 ft 491 kts 88°
2026-05-08 18:22 44.10255 -46.23501 39138 ft 491 kts 88°
2026-05-08 18:22 44.10350 -46.14303 39158 ft 489 kts 88°
2026-05-08 18:23 44.10440 -46.04902 39162 ft 488 kts 88°
2026-05-08 18:23 44.10523 -45.95450 39162 ft 488 kts 88°
2026-05-08 18:24 44.10598 -45.85997 39172 ft 488 kts 88°
2026-05-08 18:24 44.10665 -45.76548 39173 ft 488 kts 88°
2026-05-08 18:25 44.10724 -45.67112 39175 ft 487 kts 87°
2026-05-08 18:25 44.10774 -45.57718 39181 ft 484 kts 88°
2026-05-08 18:26 44.10818 -45.48344 39180 ft 484 kts 88°
2026-05-08 18:26 44.10854 -45.38972 39187 ft 485 kts 88°
2026-05-08 18:27 44.10878 -45.31197 39196 ft 485 kts 88°
2026-05-08 18:27 44.10902 -45.20252 39195 ft 482 kts 88°
2026-05-08 18:28 44.10914 -45.11027 39207 ft 477 kts 88°
2026-05-08 18:28 44.10919 -45.01740 39202 ft 477 kts 88°
2026-05-08 18:29 44.10917 -44.92520 39203 ft 477 kts 88°
2026-05-08 18:29 44.10908 -44.83289 39211 ft 477 kts 88°
2026-05-08 18:30 44.10890 -44.74057 39213 ft 477 kts 88°
2026-05-08 18:30 44.10865 -44.64919 39223 ft 475 kts 87°
2026-05-08 18:31 44.10834 -44.55747 39223 ft 474 kts 87°
2026-05-08 18:31 44.10795 -44.46576 39228 ft 474 kts 87°
2026-05-08 18:32 44.10749 -44.37404 39227 ft 474 kts 88°
2026-05-08 18:32 44.10695 -44.28226 39227 ft 474 kts 88°
2026-05-08 18:33 44.10634 -44.19055 39234 ft 474 kts 87°
2026-05-08 18:33 44.10566 -44.09979 39235 ft 473 kts 87°
2026-05-08 18:34 44.10491 -44.00834 39241 ft 473 kts 87°
2026-05-08 18:34 44.10408 -43.91681 39241 ft 473 kts 88°
2026-05-08 18:35 44.10318 -43.82529 39252 ft 473 kts 88°
2026-05-08 18:35 44.10220 -43.73380 39262 ft 473 kts 88°
2026-05-08 18:36 44.10115 -43.64248 39268 ft 471 kts 87°
2026-05-08 18:36 44.10003 -43.55174 39258 ft 467 kts 87°
2026-05-08 18:37 44.09886 -43.46153 39265 ft 467 kts 87°
2026-05-08 18:37 44.09762 -43.37117 39275 ft 467 kts 87°
2026-05-08 18:38 44.09631 -43.28132 39264 ft 467 kts 87°
2026-05-08 18:38 44.09492 -43.19116 39277 ft 467 kts 87°
2026-05-08 18:39 44.09346 -43.10116 39287 ft 465 kts 86°
2026-05-08 18:39 44.09192 -43.01139 39280 ft 462 kts 86°
2026-05-08 18:40 44.09034 -42.92208 39279 ft 462 kts 86°
2026-05-08 18:40 44.08871 -42.83322 39285 ft 462 kts 87°
2026-05-08 18:41 44.08699 -42.74377 39288 ft 462 kts 87°
2026-05-08 18:41 44.08519 -42.65441 39297 ft 462 kts 86°
2026-05-08 18:42 44.08333 -42.56508 39300 ft 461 kts 86°
2026-05-08 18:42 44.08140 -42.47606 39296 ft 461 kts 86°
2026-05-08 18:43 44.07940 -42.38695 39296 ft 460 kts 86°
2026-05-08 18:43 44.07734 -42.29799 39301 ft 460 kts 86°
2026-05-08 18:44 44.07521 -42.20901 39301 ft 461 kts 86°
2026-05-08 18:44 44.07300 -42.11999 39311 ft 460 kts 86°
2026-05-08 18:45 44.07073 -42.03110 39308 ft 459 kts 86°
2026-05-08 18:45 44.06839 -41.94276 39304 ft 457 kts 86°
2026-05-08 18:46 44.06601 -41.85451 39310 ft 457 kts 86°
2026-05-08 18:46 44.06355 -41.76616 39309 ft 457 kts 86°
2026-05-08 18:47 44.06103 -41.67790 39317 ft 457 kts 86°
2026-05-08 18:47 44.05844 -41.58967 39312 ft 456 kts 86°
2026-05-08 18:48 44.05577 -41.50207 39318 ft 451 kts 86°
2026-05-08 18:48 44.05307 -41.41539 39321 ft 447 kts 86°
2026-05-08 18:49 44.05035 -41.32911 39320 ft 447 kts 86°
2026-05-08 18:49 44.04757 -41.24273 39319 ft 447 kts 86°
2026-05-08 18:50 44.04471 -41.15629 39320 ft 447 kts 86°
2026-05-08 18:50 44.04228 -41.08457 39332 ft 447 kts 86°
2026-05-08 18:51 44.03930 -40.99908 39333 ft 444 kts 86°
2026-05-08 18:51 44.03626 -40.91316 39330 ft 443 kts 86°
2026-05-08 18:52 44.03319 -40.82763 39330 ft 443 kts 86°
2026-05-08 18:52 44.03005 -40.74222 39330 ft 443 kts 86°
2026-05-08 18:53 44.02684 -40.65681 39333 ft 443 kts 86°
2026-05-08 18:53 44.02357 -40.57141 39333 ft 443 kts 86°
2026-05-08 18:54 44.02024 -40.48610 39342 ft 443 kts 87°
2026-05-08 18:54 44.01684 -40.40058 39333 ft 445 kts 87°
2026-05-08 18:55 44.01159 -40.27180 39335 ft 445 kts 87°
2026-05-08 18:56 44.00799 -40.18581 39336 ft 445 kts 87°
2026-05-08 18:56 44.00436 -40.10025 39338 ft 445 kts 87°
2026-05-08 18:57 44.00069 -40.01510 39341 ft 446 kts 88°
2026-05-08 18:57 43.99630 -39.92832 39345 ft 447 kts 89°
2026-05-08 18:58 43.99137 -39.84216 39346 ft 448 kts 89°
2026-05-08 18:58 43.98638 -39.75656 39346 ft 448 kts 89°
2026-05-08 18:59 43.98135 -39.67014 39344 ft 448 kts 89°
2026-05-08 18:59 43.97632 -39.58420 39347 ft 448 kts 89°
2026-05-08 19:00 43.97122 -39.49800 39345 ft 447 kts 90°
2026-05-08 19:00 43.96608 -39.41210 39342 ft 447 kts 90°
2026-05-08 19:01 43.96086 -39.32604 39350 ft 448 kts 90°
2026-05-08 19:01 43.95556 -39.23981 39342 ft 448 kts 90°
2026-05-08 19:02 43.95019 -39.15368 39362 ft 448 kts 90°
2026-05-08 19:02 43.94479 -39.06756 39362 ft 448 kts 90°
2026-05-08 19:03 43.93929 -38.98154 39355 ft 447 kts 90°
2026-05-08 19:03 43.93375 -38.89582 39356 ft 445 kts 90°
2026-05-08 19:04 43.92816 -38.81030 39368 ft 445 kts 90°
2026-05-08 19:04 43.92252 -38.72472 39365 ft 445 kts 90°
2026-05-08 19:05 43.91681 -38.63927 39357 ft 445 kts 90°
2026-05-08 19:05 43.91103 -38.55370 39354 ft 446 kts 90°
2026-05-08 19:06 43.90519 -38.46819 39376 ft 445 kts 91°
2026-05-08 19:06 43.89928 -38.38273 39362 ft 445 kts 91°
2026-05-08 19:07 43.89332 -38.29730 39358 ft 445 kts 91°
2026-05-08 19:07 43.88729 -38.21192 39359 ft 445 kts 91°
2026-05-08 19:08 43.88121 -38.12658 39363 ft 445 kts 91°
2026-05-08 19:08 43.87504 -38.04112 39365 ft 445 kts 91°
2026-05-08 19:09 43.86882 -37.95570 39384 ft 446 kts 91°
2026-05-08 19:09 43.86252 -37.87019 39361 ft 445 kts 91°
2026-05-08 19:10 43.85618 -37.78501 39363 ft 445 kts 91°
2026-05-08 19:10 43.84977 -37.69965 39363 ft 445 kts 91°
2026-05-08 19:11 43.84330 -37.61448 39362 ft 445 kts 91°
2026-05-08 19:11 43.83676 -37.52915 39360 ft 445 kts 91°
2026-05-08 19:12 43.83016 -37.44390 39377 ft 446 kts 91°
2026-05-08 19:12 43.82349 -37.35844 39362 ft 448 kts 91°
2026-05-08 19:13 43.81671 -37.27262 39359 ft 447 kts 91°
2026-05-08 19:13 43.80993 -37.18766 39360 ft 447 kts 91°
2026-05-08 19:14 43.80300 -37.10162 39359 ft 447 kts 91°
2026-05-08 19:14 43.79605 -37.01597 39358 ft 447 kts 91°
2026-05-08 19:15 43.78904 -36.93050 39362 ft 448 kts 91°
2026-05-08 19:15 43.78193 -36.84450 39361 ft 450 kts 91°
2026-05-08 19:16 43.77473 -36.75843 39363 ft 450 kts 91°
2026-05-08 19:16 43.76748 -36.67244 39359 ft 450 kts 91°
2026-05-08 19:17 43.76020 -36.58700 39362 ft 450 kts 91°
2026-05-08 19:17 43.75278 -36.50058 39361 ft 450 kts 91°
2026-05-08 19:18 43.74533 -36.41452 39359 ft 451 kts 91°
2026-05-08 19:18 43.73785 -36.32883 39357 ft 453 kts 91°
2026-05-08 19:19 43.73021 -36.24211 39356 ft 454 kts 91°
2026-05-08 19:19 43.72250 -36.15557 39357 ft 454 kts 91°
2026-05-08 19:20 43.71471 -36.06889 39356 ft 454 kts 91°
2026-05-08 19:20 43.70688 -35.98236 39355 ft 454 kts 91°
2026-05-08 19:21 43.69897 -35.89566 39357 ft 456 kts 91°
2026-05-08 19:21 43.69100 -35.80875 39354 ft 459 kts 91°
2026-05-08 19:22 43.68285 -35.72112 39353 ft 460 kts 91°
2026-05-08 19:22 43.67464 -35.63362 39352 ft 459 kts 91°
2026-05-08 19:23 43.66637 -35.54617 39352 ft 459 kts 91°
2026-05-08 19:23 43.65805 -35.45869 39352 ft 460 kts 91°
2026-05-08 19:24 43.64964 -35.37103 39350 ft 462 kts 91°
2026-05-08 19:24 43.64111 -35.28283 39350 ft 464 kts 92°
2026-05-08 19:25 43.63250 -35.19466 39351 ft 463 kts 92°
2026-05-08 19:25 43.62381 -35.10652 39350 ft 463 kts 92°
2026-05-08 19:26 43.61508 -35.01846 39347 ft 463 kts 92°
2026-05-08 19:26 43.60627 -34.93030 39350 ft 464 kts 92°
2026-05-08 19:27 43.59736 -34.84177 39367 ft 467 kts 92°
2026-05-08 19:27 43.58833 -34.75289 39343 ft 468 kts 92°
2026-05-08 19:28 43.57921 -34.66399 39356 ft 468 kts 92°
2026-05-08 19:28 43.57003 -34.57505 39343 ft 468 kts 92°
2026-05-08 19:29 43.56084 -34.48680 39344 ft 468 kts 92°
2026-05-08 19:29 43.55153 -34.39780 39341 ft 471 kts 92°
2026-05-08 19:30 43.54208 -34.30817 39360 ft 474 kts 92°
2026-05-08 19:30 43.53249 -34.21806 39341 ft 475 kts 92°
2026-05-08 19:31 43.52281 -34.12800 39341 ft 475 kts 92°
2026-05-08 19:31 43.51306 -34.03793 39338 ft 475 kts 92°
2026-05-08 19:32 43.50325 -33.94785 39339 ft 475 kts 92°
2026-05-08 19:32 43.49338 -33.85786 39341 ft 475 kts 92°
2026-05-08 19:33 43.48343 -33.76782 39348 ft 476 kts 92°
2026-05-08 19:33 43.47339 -33.67760 39338 ft 477 kts 92°
2026-05-08 19:34 43.46325 -33.58721 39337 ft 477 kts 92°
2026-05-08 19:34 43.45304 -33.49694 39339 ft 478 kts 93°
2026-05-08 19:35 43.44274 -33.40641 39335 ft 480 kts 93°
2026-05-08 19:35 43.43233 -33.31559 39333 ft 481 kts 93°
2026-05-08 19:36 43.42182 -33.22465 39329 ft 482 kts 93°
2026-05-08 19:36 43.41303 -33.14906 39324 ft 482 kts 93°
2026-05-08 19:37 43.40237 -33.05806 39327 ft 482 kts 93°
2026-05-08 19:37 43.39166 -32.96708 39328 ft 483 kts 94°
2026-05-08 19:38 43.37907 -32.86101 39322 ft 485 kts 94°
2026-05-08 19:38 43.36990 -32.78437 39354 ft 485 kts 94°
2026-05-08 19:39 43.35889 -32.69297 39320 ft 485 kts 94°
2026-05-08 19:39 43.34780 -32.60155 39319 ft 485 kts 94°
2026-05-08 19:40 43.33664 -32.51012 39313 ft 486 kts 94°
2026-05-08 19:40 43.32547 -32.41913 39311 ft 487 kts 94°
2026-05-08 19:41 43.31413 -32.32753 39309 ft 487 kts 94°
2026-05-08 19:41 43.30270 -32.23580 39311 ft 487 kts 94°
2026-05-08 19:42 43.29120 -32.14408 39302 ft 488 kts 94°
2026-05-08 19:42 43.27962 -32.05243 39312 ft 488 kts 94°
2026-05-08 19:43 43.26795 -31.96063 39298 ft 489 kts 94°
2026-05-08 19:43 43.25619 -31.86867 39298 ft 489 kts 95°
2026-05-08 19:44 43.24434 -31.77671 39321 ft 490 kts 95°
2026-05-08 19:44 43.23242 -31.68479 39290 ft 490 kts 95°
2026-05-08 19:45 43.22042 -31.59287 39292 ft 490 kts 95°
2026-05-08 19:45 43.20834 -31.50096 39287 ft 491 kts 95°
2026-05-08 19:46 43.19616 -31.40883 39291 ft 491 kts 95°
2026-05-08 19:46 43.17775 -31.27076 39314 ft 491 kts 95°
2026-05-08 19:47 43.16539 -31.17873 39273 ft 491 kts 95°
2026-05-08 19:47 43.15294 -31.08666 39277 ft 491 kts 95°
2026-05-08 19:48 43.14041 -30.99461 39271 ft 493 kts 95°
2026-05-08 19:48 43.12778 -30.90236 39269 ft 493 kts 95°
2026-05-08 19:49 43.11508 -30.81018 39268 ft 493 kts 95°
2026-05-08 19:49 43.10230 -30.71804 39265 ft 493 kts 95°
2026-05-08 19:50 43.08944 -30.62593 39260 ft 493 kts 95°
2026-05-08 19:50 43.07661 -30.53446 39258 ft 494 kts 96°
2026-05-08 19:51 43.06357 -30.44212 39251 ft 494 kts 96°
2026-05-08 19:51 43.05045 -30.34984 39244 ft 494 kts 96°
2026-05-08 19:52 43.03732 -30.25802 39250 ft 494 kts 96°
2026-05-08 19:52 43.02403 -30.16559 39240 ft 494 kts 96°
2026-05-08 19:53 43.01068 -30.07332 39232 ft 495 kts 96°
2026-05-08 19:53 43.00087 -29.98073 39238 ft 489 kts 87°
2026-05-08 19:54 42.99882 -29.88814 39236 ft 487 kts 85°
2026-05-08 19:54 42.99820 -29.79564 39242 ft 487 kts 84°
2026-05-08 19:55 42.99769 -29.70299 39227 ft 487 kts 85°
2026-05-08 19:55 42.99696 -29.61066 39221 ft 487 kts 85°
2026-05-08 19:56 42.99605 -29.51809 39220 ft 487 kts 85°
2026-05-08 19:56 42.99504 -29.42551 39218 ft 488 kts 85°
2026-05-08 19:57 42.99396 -29.33267 39217 ft 489 kts 85°
2026-05-08 19:57 42.99280 -29.23993 39214 ft 488 kts 85°
2026-05-08 19:58 42.99157 -29.14729 39211 ft 488 kts 85°
2026-05-08 19:58 42.99028 -29.05509 39211 ft 489 kts 85°
2026-05-08 19:59 42.98889 -28.96177 39220 ft 489 kts 85°
2026-05-08 19:59 42.98744 -28.86887 39205 ft 489 kts 85°
2026-05-08 20:00 42.98591 -28.77603 39200 ft 489 kts 85°
2026-05-08 20:00 42.98430 -28.68327 39200 ft 489 kts 85°
2026-05-08 20:01 42.98263 -28.59051 39189 ft 489 kts 86°
2026-05-08 20:01 42.98087 -28.49773 39187 ft 488 kts 86°
2026-05-08 20:02 42.97904 -28.40512 39187 ft 488 kts 86°
2026-05-08 20:02 42.97714 -28.31233 39185 ft 488 kts 86°
2026-05-08 20:03 42.97518 -28.22029 39184 ft 488 kts 86°
2026-05-08 20:03 42.97313 -28.12757 39188 ft 489 kts 86°
2026-05-08 20:04 42.97101 -28.03469 39172 ft 490 kts 86°
2026-05-08 20:04 42.96880 -27.94165 39171 ft 491 kts 86°
2026-05-08 20:05 42.96651 -27.84851 39169 ft 491 kts 86°
2026-05-08 20:05 42.96415 -27.75542 39160 ft 491 kts 86°
2026-05-08 20:06 42.96171 -27.66223 39155 ft 492 kts 86°
2026-05-08 20:06 42.95919 -27.56870 39161 ft 493 kts 86°
2026-05-08 20:07 42.95658 -27.47515 39148 ft 493 kts 86°
2026-05-08 20:07 42.95390 -27.38158 39150 ft 494 kts 87°
2026-05-08 20:08 42.95115 -27.28787 39146 ft 496 kts 87°
2026-05-08 20:08 42.94831 -27.19368 39134 ft 498 kts 87°
2026-05-08 20:09 42.94537 -27.09918 39129 ft 498 kts 87°
2026-05-08 20:09 42.94234 -27.00473 39118 ft 498 kts 87°
2026-05-08 20:10 42.93924 -26.91031 39145 ft 498 kts 87°
2026-05-08 20:10 42.93607 -26.81572 39118 ft 500 kts 87°
2026-05-08 20:11 42.93284 -26.72160 39112 ft 500 kts 87°
2026-05-08 20:11 42.92950 -26.62682 39103 ft 501 kts 87°
2026-05-08 20:12 42.92608 -26.53186 39100 ft 501 kts 87°
2026-05-08 20:12 42.92257 -26.43702 39100 ft 501 kts 88°
2026-05-08 20:13 42.91899 -26.34216 39088 ft 500 kts 88°
2026-05-08 20:13 42.91534 -26.24735 39090 ft 501 kts 88°
2026-05-08 20:14 42.91161 -26.15249 39081 ft 501 kts 88°
2026-05-08 20:14 42.90780 -26.05765 39082 ft 501 kts 88°
2026-05-08 20:15 42.90391 -25.96286 39075 ft 501 kts 88°
2026-05-08 20:15 42.89994 -25.86792 39071 ft 501 kts 88°
2026-05-08 20:16 42.89588 -25.77297 39071 ft 501 kts 88°
2026-05-08 20:16 42.89175 -25.67802 39080 ft 501 kts 88°
2026-05-08 20:17 42.88754 -25.58328 39061 ft 500 kts 88°
2026-05-08 20:17 42.88326 -25.48860 39056 ft 500 kts 88°
2026-05-08 20:18 42.87891 -25.39395 39060 ft 500 kts 88°
2026-05-08 20:18 42.87448 -25.29929 39044 ft 500 kts 89°
2026-05-08 20:19 42.86996 -25.20471 39043 ft 499 kts 89°
2026-05-08 20:19 42.86541 -25.11104 39040 ft 498 kts 89°
2026-05-08 20:20 42.86077 -25.01677 39028 ft 498 kts 89°
2026-05-08 20:20 42.85604 -24.92251 39029 ft 499 kts 89°
2026-05-08 20:21 42.85124 -24.82822 39026 ft 498 kts 90°
2026-05-08 20:21 42.84636 -24.73417 39012 ft 497 kts 90°
2026-05-08 20:22 42.84141 -24.64016 39013 ft 497 kts 90°
2026-05-08 20:22 42.83721 -24.56135 39010 ft 498 kts 90°
2026-05-08 20:23 42.83128 -24.45178 39022 ft 499 kts 90°
2026-05-08 20:23 42.82608 -24.35755 38991 ft 498 kts 90°
2026-05-08 20:24 42.82081 -24.26342 38993 ft 498 kts 90°
2026-05-08 20:24 42.81546 -24.16935 38985 ft 498 kts 90°
2026-05-08 20:25 42.81004 -24.07524 38985 ft 499 kts 90°
2026-05-08 20:25 42.80454 -23.98109 38981 ft 499 kts 90°
2026-05-08 20:26 42.79991 -23.90286 38967 ft 499 kts 90°
2026-05-08 20:26 42.79426 -23.80861 38960 ft 500 kts 91°
2026-05-08 20:27 42.78853 -23.71434 38960 ft 500 kts 91°
2026-05-08 20:27 42.78272 -23.62010 38966 ft 500 kts 91°
2026-05-08 20:28 42.77685 -23.52602 38947 ft 499 kts 91°
2026-05-08 20:28 42.77089 -23.43196 38952 ft 499 kts 91°
2026-05-08 20:29 42.76486 -23.33792 38942 ft 499 kts 91°
2026-05-08 20:29 42.75880 -23.24451 38938 ft 499 kts 92°
2026-05-08 20:30 42.75262 -23.15056 38932 ft 499 kts 91°
2026-05-08 20:30 42.74636 -23.05662 38919 ft 498 kts 91°
2026-05-08 20:31 42.74106 -22.97791 38922 ft 499 kts 91°
2026-05-08 20:31 42.73297 -22.85924 38911 ft 499 kts 92°
2026-05-08 20:32 42.72648 -22.76538 38912 ft 498 kts 92°
2026-05-08 20:32 42.71991 -22.67159 38904 ft 498 kts 92°
2026-05-08 20:33 42.71326 -22.57785 38891 ft 498 kts 92°
2026-05-08 20:33 42.70655 -22.48409 38892 ft 498 kts 92°
2026-05-08 20:34 42.69976 -22.39039 38892 ft 498 kts 93°
2026-05-08 20:35 42.68947 -22.25056 38884 ft 498 kts 93°
2026-05-08 20:35 42.68245 -22.15642 38875 ft 498 kts 93°
2026-05-08 20:36 42.67544 -22.06349 38868 ft 498 kts 93°
2026-05-08 20:36 42.66831 -21.97001 38868 ft 498 kts 93°
2026-05-08 20:37 42.66111 -21.87646 38871 ft 498 kts 93°
2026-05-08 20:37 42.65383 -21.78300 38870 ft 498 kts 94°
2026-05-08 20:38 42.64648 -21.68966 38867 ft 496 kts 94°
2026-05-08 20:38 42.63907 -21.59656 38863 ft 496 kts 94°
2026-05-08 20:39 42.63159 -21.50351 38853 ft 496 kts 94°
2026-05-08 20:39 42.62404 -21.41051 38852 ft 495 kts 94°
2026-05-08 20:40 42.61642 -21.31768 38851 ft 495 kts 94°
2026-05-08 20:40 42.60873 -21.22490 38848 ft 495 kts 94°
2026-05-08 20:41 42.60097 -21.13211 38845 ft 495 kts 95°
2026-05-08 20:41 42.59312 -21.03928 38835 ft 495 kts 95°
2026-05-08 20:42 42.58525 -20.94709 38836 ft 495 kts 95°
2026-05-08 20:42 42.57721 -20.85371 38832 ft 495 kts 95°
2026-05-08 20:43 42.56919 -20.76158 38834 ft 495 kts 95°
2026-05-08 20:43 42.56104 -20.66881 38826 ft 495 kts 95°
2026-05-08 20:44 42.55283 -20.57615 38824 ft 495 kts 95°
2026-05-08 20:44 42.54453 -20.48346 38822 ft 495 kts 95°
2026-05-08 20:45 42.53616 -20.39073 38818 ft 496 kts 95°
2026-05-08 20:45 42.52770 -20.29797 38811 ft 496 kts 96°
2026-05-08 20:46 42.51918 -20.20526 38813 ft 496 kts 96°
2026-05-08 20:46 42.51057 -20.11256 38817 ft 496 kts 96°
2026-05-08 20:47 42.50337 -20.03560 38807 ft 495 kts 96°
2026-05-08 20:47 42.49523 -19.94295 38807 ft 495 kts 95°
2026-05-08 20:48 42.48802 -19.85027 38807 ft 495 kts 95°
2026-05-08 20:48 42.48088 -19.75763 38806 ft 495 kts 95°
2026-05-08 20:49 42.47354 -19.66497 38798 ft 495 kts 95°
2026-05-08 20:49 42.46605 -19.57236 38796 ft 495 kts 95°
2026-05-08 20:50 42.45846 -19.47977 38796 ft 495 kts 95°
2026-05-08 20:50 42.45082 -19.38730 38792 ft 494 kts 95°
2026-05-08 20:51 42.44310 -19.29490 38792 ft 493 kts 95°
2026-05-08 20:51 42.43533 -19.20258 38790 ft 493 kts 96°
2026-05-08 20:52 42.42748 -19.11036 38788 ft 493 kts 96°
2026-05-08 20:52 42.41956 -19.01822 38783 ft 493 kts 95°
2026-05-08 20:53 42.41157 -18.92609 38780 ft 493 kts 95°
2026-05-08 20:53 42.40356 -18.83457 38777 ft 493 kts 96°
2026-05-08 20:54 42.39541 -18.74238 38775 ft 493 kts 96°
2026-05-08 20:54 42.38719 -18.65033 38771 ft 493 kts 96°
2026-05-08 20:55 42.37891 -18.55828 38772 ft 493 kts 96°
2026-05-08 20:55 42.37054 -18.46614 38772 ft 493 kts 96°
2026-05-08 20:56 42.36211 -18.37412 38765 ft 492 kts 96°
2026-05-08 20:56 42.35362 -18.28242 38764 ft 491 kts 96°
2026-05-08 20:57 42.34506 -18.19077 38753 ft 492 kts 96°
2026-05-08 20:57 42.33640 -18.09883 38755 ft 493 kts 96°
2026-05-08 20:58 42.32769 -18.00696 38756 ft 492 kts 97°
2026-05-08 20:58 42.31892 -17.91541 38751 ft 491 kts 97°
2026-05-08 20:59 42.31008 -17.82400 38745 ft 491 kts 97°
2026-05-08 20:59 42.30116 -17.73245 38743 ft 491 kts 97°
2026-05-08 21:00 42.29217 -17.64105 38742 ft 490 kts 97°
2026-05-08 21:00 42.28320 -17.55050 38737 ft 490 kts 97°
2026-05-08 21:01 42.27410 -17.45943 38735 ft 490 kts 97°
2026-05-08 21:01 42.26491 -17.36817 38733 ft 491 kts 98°
2026-05-08 21:02 42.25565 -17.27699 38733 ft 490 kts 98°
2026-05-08 21:02 42.24634 -17.18600 38729 ft 489 kts 98°
2026-05-08 21:03 42.23695 -17.09506 38726 ft 489 kts 98°
2026-05-08 21:03 42.22750 -17.00416 38716 ft 489 kts 98°
2026-05-08 21:04 42.21799 -16.91342 38720 ft 488 kts 98°
2026-05-08 21:04 42.20843 -16.82293 38715 ft 487 kts 98°
2026-05-08 21:05 42.19879 -16.73237 38711 ft 487 kts 99°
2026-05-08 21:05 42.18907 -16.64182 38705 ft 489 kts 99°
2026-05-08 21:06 42.17926 -16.55110 38702 ft 489 kts 99°
2026-05-08 21:06 42.16938 -16.46040 38699 ft 489 kts 99°
2026-05-08 21:07 42.15943 -16.36970 38693 ft 489 kts 99°
2026-05-08 21:07 42.14942 -16.27916 38689 ft 487 kts 99°
2026-05-08 21:08 42.13939 -16.18907 38689 ft 486 kts 100°
2026-05-08 21:08 42.12930 -16.09912 38688 ft 485 kts 99°
2026-05-08 21:09 42.11914 -16.00927 38679 ft 485 kts 99°
2026-05-08 21:09 42.10890 -15.91936 38672 ft 485 kts 100°
2026-05-08 21:10 42.09860 -15.82957 38683 ft 486 kts 100°
2026-05-08 21:10 42.08836 -15.74077 38707 ft 485 kts 101°
2026-05-08 21:11 42.07791 -15.65095 38671 ft 486 kts 100°
2026-05-08 21:11 42.06740 -15.56119 38669 ft 485 kts 101°
2026-05-08 21:12 42.05692 -15.47231 38668 ft 484 kts 101°
2026-05-08 21:12 42.04630 -15.38297 38657 ft 484 kts 101°
2026-05-08 21:13 42.03562 -15.29360 38663 ft 484 kts 100°
2026-05-08 21:13 42.02488 -15.20433 38660 ft 484 kts 100°
2026-05-08 21:14 42.01407 -15.11506 38657 ft 484 kts 100°
2026-05-08 21:14 42.00317 -15.02573 38657 ft 484 kts 100°
2026-05-08 21:15 41.99223 -14.93646 38658 ft 484 kts 101°
2026-05-08 21:15 41.98123 -14.84711 38656 ft 484 kts 101°
2026-05-08 21:16 41.97015 -14.75775 38658 ft 485 kts 102°
2026-05-08 21:16 41.95899 -14.66832 38664 ft 486 kts 101°
2026-05-08 21:17 41.94777 -14.57896 38668 ft 485 kts 101°
2026-05-08 21:17 41.93647 -14.48966 38659 ft 484 kts 101°
2026-05-08 21:18 41.92513 -14.40060 38661 ft 484 kts 101°
2026-05-08 21:18 41.91374 -14.31157 38666 ft 484 kts 102°
2026-05-08 21:19 41.90228 -14.22264 38667 ft 483 kts 103°
2026-05-08 21:19 41.89078 -14.13389 38661 ft 482 kts 101°
2026-05-08 21:20 41.87925 -14.04546 38667 ft 480 kts 101°
2026-05-08 21:20 41.86766 -13.95725 38677 ft 480 kts 103°
2026-05-08 21:21 41.85600 -13.86902 38672 ft 480 kts 102°
2026-05-08 21:21 41.84431 -13.78100 38673 ft 478 kts 102°
2026-05-08 21:22 41.83261 -13.69342 38675 ft 477 kts 103°
2026-05-08 21:22 41.82082 -13.60594 38679 ft 477 kts 103°
2026-05-08 21:23 41.80898 -13.51853 38673 ft 477 kts 103°
2026-05-08 21:23 41.79712 -13.43165 38676 ft 476 kts 102°
2026-05-08 21:24 41.78518 -13.34443 38680 ft 476 kts 104°
2026-05-08 21:24 41.77321 -13.25739 38683 ft 475 kts 102°
2026-05-08 21:25 41.76116 -13.17036 38685 ft 475 kts 103°
2026-05-08 21:25 41.74902 -13.08332 38682 ft 475 kts 104°
2026-05-08 21:26 41.73685 -12.99652 38695 ft 474 kts 103°
2026-05-08 21:26 41.72461 -12.90970 38697 ft 474 kts 104°
2026-05-08 21:27 41.71231 -12.82296 38697 ft 474 kts 104°
2026-05-08 21:27 41.69992 -12.73621 38698 ft 474 kts 104°
2026-05-08 21:28 41.68749 -12.64952 38702 ft 475 kts 104°
2026-05-08 21:28 41.67500 -12.56284 38707 ft 475 kts 104°
2026-05-08 21:29 41.66242 -12.47616 38711 ft 475 kts 105°
2026-05-08 21:29 41.64980 -12.38960 38703 ft 474 kts 103°
2026-05-08 21:30 41.63709 -12.30295 38721 ft 475 kts 104°
2026-05-08 21:30 41.62429 -12.21621 38714 ft 476 kts 104°
2026-05-08 21:31 41.61143 -12.12950 38723 ft 476 kts 104°
2026-05-08 21:31 41.59852 -12.04287 38723 ft 476 kts 104°
2026-05-08 21:32 41.58552 -11.95617 38730 ft 476 kts 104°
2026-05-08 21:32 41.57254 -11.87002 38729 ft 476 kts 104°
2026-05-08 21:33 41.55942 -11.78343 38736 ft 475 kts 105°
2026-05-08 21:33 41.54625 -11.69698 38745 ft 475 kts 104°
2026-05-08 21:34 41.53301 -11.61052 38738 ft 475 kts 105°
2026-05-08 21:34 41.51971 -11.52414 38739 ft 475 kts 104°
2026-05-08 21:35 41.50634 -11.43778 38743 ft 475 kts 104°
2026-05-08 21:35 41.49510 -11.36548 38742 ft 475 kts 104°
2026-05-08 21:36 41.48171 -11.27981 38743 ft 475 kts 105°
2026-05-08 21:36 41.46814 -11.19344 38743 ft 476 kts 105°
2026-05-08 21:37 41.45450 -11.10700 38752 ft 477 kts 105°
2026-05-08 21:37 41.44079 -11.02064 38740 ft 476 kts 105°
2026-05-08 21:38 41.42704 -10.93439 38753 ft 475 kts 105°
2026-05-08 21:38 41.41322 -10.84820 38760 ft 476 kts 105°
2026-05-08 21:39 41.39932 -10.76198 38760 ft 476 kts 105°
2026-05-08 21:39 41.38537 -10.67583 38766 ft 476 kts 105°
2026-05-08 21:40 41.37134 -10.58964 38762 ft 476 kts 105°
2026-05-08 21:40 41.35725 -10.50353 38765 ft 476 kts 105°
2026-05-08 21:41 41.33597 -10.37428 38774 ft 477 kts 106°
2026-05-08 21:41 41.32171 -10.28814 38774 ft 477 kts 106°
2026-05-08 21:42 41.30738 -10.20205 38760 ft 477 kts 106°
2026-05-08 21:42 41.29300 -10.11610 38782 ft 476 kts 106°
2026-05-08 21:43 41.27856 -10.03020 38779 ft 476 kts 106°
2026-05-08 21:43 41.26408 -9.94443 38787 ft 476 kts 106°
2026-05-08 21:44 41.24951 -9.85862 38782 ft 476 kts 107°
2026-05-08 21:45 41.22018 -9.68703 38788 ft 475 kts 107°
2026-05-08 21:45 41.20547 -9.60159 38793 ft 475 kts 107°
2026-05-08 21:46 41.19069 -9.51617 38796 ft 475 kts 107°
2026-05-08 21:46 41.17586 -9.43083 38791 ft 475 kts 107°
2026-05-08 21:47 41.16093 -9.34538 38799 ft 475 kts 107°
2026-05-08 21:47 41.14595 -9.25997 38799 ft 475 kts 107°
2026-05-08 21:48 41.13090 -9.17457 38802 ft 475 kts 107°
2026-05-08 21:48 41.11579 -9.08926 38784 ft 475 kts 107°
2026-05-08 21:49 41.10062 -9.00395 38798 ft 476 kts 108°
2026-05-08 21:49 41.08537 -8.91864 38797 ft 476 kts 108°
2026-05-08 21:50 41.07006 -8.83339 38799 ft 476 kts 108°
2026-05-08 21:50 41.05468 -8.74811 38800 ft 475 kts 108°
2026-05-08 21:51 41.03926 -8.66299 38796 ft 476 kts 108°
2026-05-08 21:51 41.02375 -8.57780 38800 ft 476 kts 108°
2026-05-08 21:52 41.00815 -8.49250 38812 ft 477 kts 108°
2026-05-08 21:52 40.99247 -8.40708 38813 ft 478 kts 108°
2026-05-08 21:53 40.97672 -8.32172 38804 ft 477 kts 109°
2026-05-08 21:53 40.96087 -8.23624 38821 ft 479 kts 109°
2026-05-08 21:54 40.94494 -8.15067 38824 ft 479 kts 109°
2026-05-08 21:54 40.92894 -8.06504 38814 ft 479 kts 109°
2026-05-08 21:55 40.91298 -7.98003 38818 ft 479 kts 109°
2026-05-08 21:56 40.88878 -7.85186 38830 ft 479 kts 109°
2026-05-08 21:56 40.87256 -7.76644 38834 ft 479 kts 109°
2026-05-08 21:57 40.85627 -7.68103 38828 ft 480 kts 109°
2026-05-08 21:57 40.83991 -7.59560 38815 ft 480 kts 109°
2026-05-08 21:58 40.82344 -7.51003 38771 ft 481 kts 110°
2026-05-08 21:58 40.81518 -7.46723 38202 ft 483 kts 110°
2026-05-08 21:58 40.80686 -7.42423 37574 ft 483 kts 110°
2026-05-08 21:58 40.79854 -7.38130 36980 ft 483 kts 110°
2026-05-08 21:59 40.79021 -7.33841 36400 ft 483 kts 111°
2026-05-08 21:59 40.78187 -7.29550 35807 ft 483 kts 111°
2026-05-08 21:59 40.77350 -7.25256 35207 ft 484 kts 111°
2026-05-08 21:59 40.76509 -7.20955 34576 ft 484 kts 112°
2026-05-08 22:00 40.75664 -7.16646 33878 ft 487 kts 112°
2026-05-08 22:00 40.74810 -7.12310 33159 ft 489 kts 112°
2026-05-08 22:00 40.73957 -7.07984 32526 ft 487 kts 111°
2026-05-08 22:00 40.73107 -7.03667 32026 ft 486 kts 111°
2026-05-08 22:01 40.72252 -6.99342 31859 ft 488 kts 111°
2026-05-08 22:01 40.70527 -6.90654 31856 ft 491 kts 111°
2026-05-08 22:02 40.68798 -6.81958 31843 ft 491 kts 111°
2026-05-08 22:02 40.67058 -6.73252 31855 ft 492 kts 111°
2026-05-08 22:03 40.65308 -6.64539 31864 ft 492 kts 111°
2026-05-08 22:03 40.63552 -6.55830 31864 ft 492 kts 111°
2026-05-08 22:04 40.61791 -6.47132 31871 ft 492 kts 112°
2026-05-08 22:04 40.60013 -6.38405 31875 ft 496 kts 112°
2026-05-08 22:05 40.58372 -6.29541 31877 ft 504 kts 106°
2026-05-08 22:05 40.57411 -6.20378 31816 ft 506 kts 104°
2026-05-08 22:05 40.56963 -6.15790 31173 ft 507 kts 104°
2026-05-08 22:06 40.56516 -6.11199 30553 ft 505 kts 104°
2026-05-08 22:06 40.56072 -6.06632 29868 ft 504 kts 104°
2026-05-08 22:06 40.55623 -6.02057 28978 ft 506 kts 104°
2026-05-08 22:06 40.55175 -5.97481 28336 ft 502 kts 104°
2026-05-08 22:07 40.54730 -5.92955 27826 ft 497 kts 104°
2026-05-08 22:07 40.54287 -5.88469 27264 ft 492 kts 104°
2026-05-08 22:07 40.53830 -5.84033 26718 ft 485 kts 106°
2026-05-08 22:07 40.53010 -5.79806 26163 ft 470 kts 117°
2026-05-08 22:08 40.51722 -5.75927 25638 ft 459 kts 123°
2026-05-08 22:08 40.50322 -5.72182 25104 ft 454 kts 123°
2026-05-08 22:08 40.48918 -5.68491 24501 ft 450 kts 124°
2026-05-08 22:08 40.47521 -5.64819 23961 ft 448 kts 124°
2026-05-08 22:09 40.46139 -5.61178 23433 ft 443 kts 124°
2026-05-08 22:09 40.44775 -5.57579 22836 ft 439 kts 124°
2026-05-08 22:09 40.43421 -5.54005 22205 ft 435 kts 124°
2026-05-08 22:09 40.42077 -5.50463 21569 ft 432 kts 124°
2026-05-08 22:10 40.40743 -5.46947 20988 ft 428 kts 124°
2026-05-08 22:10 40.39421 -5.43464 20401 ft 425 kts 124°
2026-05-08 22:10 40.38125 -5.40057 19824 ft 422 kts 124°
2026-05-08 22:10 40.36820 -5.36629 19251 ft 419 kts 124°
2026-05-08 22:11 40.35525 -5.33229 18709 ft 415 kts 124°
2026-05-08 22:11 40.34235 -5.29847 18125 ft 413 kts 125°
2026-05-08 22:11 40.32938 -5.26455 17559 ft 409 kts 124°
2026-05-08 22:11 40.31686 -5.23181 16947 ft 405 kts 124°
2026-05-08 22:12 40.30430 -5.19898 16381 ft 401 kts 124°
2026-05-08 22:12 40.29186 -5.16655 15833 ft 397 kts 124°
2026-05-08 22:12 40.27954 -5.13443 15340 ft 393 kts 123°
2026-05-08 22:12 40.26736 -5.10268 14992 ft 389 kts 123°
2026-05-08 22:13 40.25519 -5.07104 14921 ft 389 kts 123°
2026-05-08 22:13 40.24298 -5.03937 14908 ft 390 kts 123°
2026-05-08 22:13 40.23075 -5.00766 14915 ft 390 kts 123°
2026-05-08 22:13 40.21854 -4.97601 14919 ft 390 kts 123°
2026-05-08 22:14 40.20632 -4.94434 14885 ft 390 kts 123°
2026-05-08 22:14 40.19408 -4.91268 14905 ft 391 kts 123°
2026-05-08 22:14 40.18176 -4.88086 14902 ft 392 kts 123°
2026-05-08 22:14 40.16945 -4.84909 14908 ft 392 kts 123°
2026-05-08 22:15 40.15714 -4.81732 14915 ft 392 kts 123°
2026-05-08 22:15 40.14479 -4.78551 14908 ft 392 kts 123°
2026-05-08 22:15 40.13245 -4.75372 14907 ft 392 kts 123°
2026-05-08 22:15 40.12010 -4.72199 14902 ft 392 kts 123°
2026-05-08 22:16 40.10775 -4.69025 14910 ft 392 kts 123°
2026-05-08 22:16 40.09537 -4.65849 14907 ft 392 kts 123°
2026-05-08 22:16 40.08299 -4.62678 14908 ft 392 kts 123°
2026-05-08 22:16 40.07061 -4.59512 14903 ft 392 kts 123°
2026-05-08 22:17 40.05823 -4.56346 14901 ft 392 kts 123°
2026-05-08 22:17 40.04578 -4.53169 14959 ft 394 kts 123°
2026-05-08 22:17 40.03330 -4.49987 14969 ft 395 kts 123°
2026-05-08 22:17 40.02079 -4.46799 14969 ft 395 kts 123°
2026-05-08 22:18 40.00843 -4.43651 14972 ft 395 kts 123°
2026-05-08 22:18 39.99590 -4.40465 14974 ft 395 kts 123°
2026-05-08 22:18 39.98337 -4.37280 14974 ft 395 kts 123°
2026-05-08 22:18 39.97024 -4.34142 14973 ft 391 kts 128°
2026-05-08 22:19 39.95436 -4.31292 14972 ft 387 kts 134°
2026-05-08 22:19 39.93753 -4.28565 14707 ft 385 kts 135°
2026-05-08 22:19 39.92054 -4.25862 14047 ft 385 kts 134°
2026-05-08 22:19 39.90366 -4.23178 13544 ft 380 kts 134°
2026-05-08 22:20 39.88707 -4.20534 13006 ft 374 kts 134°
2026-05-08 22:20 39.87623 -4.18805 12645 ft 371 kts 134°
2026-05-08 22:20 39.86002 -4.16222 12179 ft 366 kts 134°
2026-05-08 22:20 39.84449 -4.13571 11993 ft 359 kts 127°
2026-05-08 22:21 39.83412 -4.10727 11992 ft 349 kts 112°
2026-05-08 22:21 39.82865 -4.07667 11974 ft 347 kts 105°
2026-05-08 22:21 39.82454 -4.04564 11972 ft 349 kts 104°
2026-05-08 22:21 39.82061 -4.01444 11841 ft 350 kts 104°
2026-05-08 22:22 39.81689 -3.98305 11267 ft 353 kts 100°
2026-05-08 22:22 39.81764 -3.95128 10933 ft 353 kts 83°
2026-05-08 22:22 39.82658 -3.92156 10552 ft 357 kts 61°
2026-05-08 22:22 39.84228 -3.89659 10148 ft 357 kts 50°
2026-05-08 22:23 39.85958 -3.87367 9800 ft 351 kts 48°
2026-05-08 22:23 39.87661 -3.85160 9620 ft 339 kts 49°
2026-05-08 22:23 39.89299 -3.83024 9482 ft 327 kts 49°
2026-05-08 22:23 39.90874 -3.80954 9337 ft 316 kts 49°
2026-05-08 22:24 39.92393 -3.78945 9135 ft 307 kts 49°
2026-05-08 22:24 39.93877 -3.76972 8835 ft 303 kts 49°
2026-05-08 22:24 39.95342 -3.75021 8508 ft 300 kts 49°
2026-05-08 22:24 39.96795 -3.73082 8153 ft 298 kts 49°
2026-05-08 22:25 39.98239 -3.71152 7810 ft 297 kts 49°
2026-05-08 22:25 39.99676 -3.69232 7471 ft 295 kts 48°
2026-05-08 22:25 40.01101 -3.67327 7167 ft 292 kts 48°
2026-05-08 22:25 40.02516 -3.65435 6859 ft 290 kts 48°
2026-05-08 22:26 40.03917 -3.63561 6542 ft 287 kts 47°
2026-05-08 22:26 40.05306 -3.61700 6219 ft 285 kts 47°
2026-05-08 22:26 40.06685 -3.59853 6003 ft 283 kts 47°
2026-05-08 22:26 40.08059 -3.58011 5988 ft 284 kts 47°
2026-05-08 22:27 40.09435 -3.56165 5986 ft 284 kts 47°
2026-05-08 22:27 40.10805 -3.54325 6003 ft 279 kts 47°
2026-05-08 22:27 40.12133 -3.52543 6006 ft 271 kts 47°
2026-05-08 22:27 40.13444 -3.50780 5689 ft 271 kts 47°
2026-05-08 22:28 40.14761 -3.49009 5516 ft 271 kts 47°
2026-05-08 22:28 40.16076 -3.47291 5488 ft 271 kts 43°
2026-05-08 22:28 40.17669 -3.45987 5495 ft 271 kts 22°
2026-05-08 22:28 40.19403 -3.45343 5510 ft 248 kts 13°
2026-05-08 22:29 40.21039 -3.44896 5483 ft 235 kts 12°
2026-05-08 22:29 40.22623 -3.44480 5185 ft 231 kts 12°
2026-05-08 22:29 40.24190 -3.44064 5013 ft 229 kts 12°
2026-05-08 22:29 40.25757 -3.43643 4900 ft 230 kts 12°
2026-05-08 22:30 40.27331 -3.43216 4521 ft 230 kts 12°
2026-05-08 22:30 40.28894 -3.42789 4490 ft 229 kts 12°
2026-05-08 22:30 40.30455 -3.42362 4500 ft 229 kts 12°
2026-05-08 22:30 40.32015 -3.41934 4500 ft 229 kts 12°
2026-05-08 22:31 40.33569 -3.41580 4503 ft 222 kts
2026-05-08 22:31 40.35043 -3.41724 4502 ft 202 kts 345°
2026-05-08 22:31 40.36245 -3.42396 4493 ft 176 kts 327°
2026-05-08 22:31 40.37211 -3.43296 4504 ft 168 kts 321°
2026-05-08 22:32 40.38153 -3.44222 4178 ft 175 kts 323°
2026-05-08 22:32 40.39119 -3.45229 3819 ft 173 kts 323°
2026-05-08 22:32 40.40041 -3.46161 3652 ft 165 kts 324°
2026-05-08 22:32 40.40948 -3.47079 3347 ft 165 kts 324°
2026-05-08 22:33 40.41873 -3.48030 2927 ft 167 kts 325°
2026-05-08 22:33 40.42750 -3.48939 2771 ft 157 kts 323°
2026-05-08 22:33 40.43605 -3.49818 2619 ft 156 kts 324°
2026-05-08 22:33 40.44466 -3.50683 2436 ft 157 kts 324°
2026-05-08 22:34 40.45371 -3.51616 2315 ft 179 kts 322°
2026-05-08 22:34 40.46460 -3.52681 2104 ft 211 kts 324°
2026-05-08 22:34 40.47631 -3.53889 1947 ft 205 kts 321°
2026-05-08 22:34 40.48670 -3.54956 1952 ft 173 kts 322°
2026-05-08 22:35 40.49430 -3.55731 1966 ft 90 kts 322°
2026-05-08 22:35 40.49554 -3.56081 1963 ft 19 kts 269°
2026-05-08 22:35 40.49554 -3.56110 1963 ft 0 kts 269°
2026-05-08 22:36 40.49554 -3.56114 1963 ft 2 kts 269°
2026-05-08 22:36 40.49554 -3.56143 1963 ft 4 kts 269°
2026-05-08 22:37 40.49553 -3.56188 1963 ft 6 kts 269°
2026-05-08 22:37 40.49553 -3.56238 1965 ft 5 kts 271°
2026-05-08 22:37 40.49554 -3.56279 1966 ft 4 kts 270°
2026-05-08 22:37 40.49554 -3.56315 1967 ft 4 kts 271°
2026-05-08 22:38 40.49554 -3.56347 1968 ft 3 kts 270°
2026-05-08 22:38 40.49555 -3.56374 1968 ft 3 kts 271°
2026-05-08 22:38 40.49555 -3.56394 1974 ft 2 kts 270°
2026-05-08 22:38 40.49553 -3.56442 1974 ft 9 kts 267°
2026-05-08 22:39 40.49538 -3.56533 1977 ft 7 kts 225°
2026-05-08 22:39 40.49482 -3.56550 1975 ft 10 kts 181°
2026-05-08 22:39 40.49372 -3.56545 1974 ft 21 kts 179°
2026-05-08 22:39 40.49269 -3.56544 1973 ft 13 kts 179°
2026-05-08 22:40 40.49192 -3.56562 1979 ft 7 kts 222°
2026-05-08 22:40 40.49193 -3.56588 1980 ft 2 kts 300°
2026-05-08 22:40 40.49212 -3.56619 1979 ft 5 kts 301°
2026-05-08 22:40 40.49214 -3.56640 1975 ft 0 kts 272°